Minchumina, AK

10:43 PM AKDT on May 28, 2017 (GMT -0800)
Minchumina

Weather History for PAMH - February, 2013

Change the Weather History Date:

Sunday, February 24, 2013

  Actual Average Record
Temperature  
Mean Temperature -10 °F -  
Max Temperature 1 °F 13 °F 37 °F (2011)
Min Temperature -20 °F 0 °F -34 °F (2007)
Degree Days  
Heating Degree Days 74    
Moisture  
Dew Point -12 °F    
Average Humidity 79    
Maximum Humidity 100    
Minimum Humidity 58    
Precipitation  
Precipitation 0.00 in - - ()
Sea Level Pressure  
Sea Level Pressure 29.52 in    
Wind  
Wind Speed 0 mph (East)    
Max Wind Speed 4 mph    
Max Gust Speed -    
Visibility 9 miles    
Events      
Averages and records for this station are not official NWS values.
T = Trace of Precipitation, MM = Missing Value Source: NWS Daily Summary

Daily Weather History Graph

Daily Weather History Graph

Search for Another Location

Airport or City:

Trip Planner

Search our weather history database for the weather conditions in past years. The results will help you decide how hot, cold, wet, or windy it might be!

Date:

Astronomy

Feb. 24, 2013 Rise Set
Actual Time 8:31 AM AKST 6:14 PM AKST
Civil Twilight 7:43 AM AKST 7:02 PM AKST
Nautical Twilight 6:48 AM AKST 7:57 PM AKST
Astronomical Twilight 5:53 AM AKST 8:53 PM AKST
Moon 5:39 PM AKST (2/24) 7:39 AM AKST (2/24)
Length of Visible Light 11h 19m
Length of Day
9h 42m
Waxing Gibbous, 99% of the Moon is Illuminated
Feb 24
Waxing Gibbous
Feb 25
Full
Mar 4
Last Quarter
Mar 11
New
Mar 19
First Quarter

Hourly Weather History & Observations

Time (AKST) Temp. Windchill Dew Point Humidity Pressure Visibility Wind Dir Wind Speed Gust Speed Precip Events Conditions
12:16 AM -7.6 °F - -13.0 °F 77% 29.35 in 10.0 mi Calm Calm - N/A   Clear
12:36 AM -9.4 °F - -14.8 °F 77% 29.36 in 10.0 mi Calm Calm - N/A   Clear
12:56 AM -9.4 °F - -13.0 °F 84% 29.37 in 10.0 mi Calm Calm - N/A   Clear
1:16 AM -9.4 °F - -11.2 °F 92% 29.37 in 10.0 mi Calm Calm - N/A   Clear
1:36 AM -9.4 °F - -14.8 °F 77% 29.37 in 10.0 mi Calm Calm - N/A   Clear
1:56 AM -11.2 °F - -13.0 °F 92% 29.38 in 10.0 mi Calm Calm - N/A   Partly Cloudy
2:16 AM -9.4 °F - -13.0 °F 84% 29.38 in 10.0 mi Calm Calm - N/A   Partly Cloudy
2:36 AM -9.4 °F - -13.0 °F 84% 29.38 in 10.0 mi Calm Calm - N/A   Clear
2:56 AM -11.2 °F - -14.8 °F 84% 29.40 in 10.0 mi Calm Calm - N/A   Clear
3:16 AM -11.2 °F - -18.4 °F 70% 29.40 in 10.0 mi Calm Calm - N/A   Clear
3:36 AM -14.8 °F - -16.6 °F 92% 29.41 in 10.0 mi Calm Calm - N/A   Clear
3:56 AM -18.4 °F - -25.6 °F 70% 29.41 in 10.0 mi Calm Calm - N/A   Clear
4:16 AM -16.6 °F - -20.2 °F 84% 29.41 in 10.0 mi Calm Calm - N/A   Clear
4:36 AM -18.4 °F - -20.2 °F 91% 29.41 in 10.0 mi Calm Calm - N/A   Mostly Cloudy
4:56 AM -14.8 °F - -14.8 °F 100% 29.42 in 10.0 mi Calm Calm - N/A   Overcast
5:16 AM -16.6 °F - -20.2 °F 84% 29.43 in 10.0 mi Calm Calm - N/A   Overcast
5:36 AM -13.0 °F - -14.8 °F 92% 29.43 in 10.0 mi Calm Calm - N/A   Partly Cloudy
5:56 AM -14.8 °F - -16.6 °F 92% 29.44 in 10.0 mi Calm Calm - N/A   Partly Cloudy
6:16 AM -13.0 °F - -16.6 °F 84% 29.45 in 10.0 mi Calm Calm - N/A   Scattered Clouds
6:36 AM -13.0 °F - -14.8 °F 92% 29.45 in 10.0 mi Calm Calm - N/A   Clear
6:56 AM -14.8 °F - -16.6 °F 92% 29.46 in 10.0 mi Calm Calm - N/A   Clear
7:16 AM -11.2 °F - -14.8 °F 84% 29.46 in 10.0 mi Calm Calm - N/A   Clear
7:36 AM -13.0 °F - -16.6 °F 84% 29.46 in 10.0 mi Calm Calm - N/A   Clear
7:56 AM -13.0 °F - -18.4 °F 77% 29.46 in 10.0 mi Calm Calm - N/A   Clear
8:16 AM -14.8 °F - -16.6 °F 92% 29.47 in 10.0 mi Calm Calm - N/A   Scattered Clouds
8:36 AM -20.2 °F - -27.4 °F 69% 29.47 in 10.0 mi Calm Calm - N/A   Overcast
8:56 AM -20.2 °F - - N/A% 29.48 in 10.0 mi Calm Calm - N/A   Mostly Cloudy
9:16 AM -11.2 °F - - N/A% 29.48 in 10.0 mi Calm Calm - N/A   Overcast
9:36 AM -11.2 °F - -20.2 °F 64% 29.49 in 10.0 mi Calm Calm - N/A   Mostly Cloudy
9:56 AM -11.2 °F - -11.2 °F 100% 29.49 in 10.0 mi Calm Calm - N/A   Clear
10:16 AM -13.0 °F - -18.4 °F 77% 29.50 in 10.0 mi Calm Calm - N/A   Clear
10:36 AM -14.8 °F - -25.6 °F 58% 29.51 in 10.0 mi Calm Calm - N/A   Clear
10:56 AM -11.2 °F - -11.2 °F 100% 29.51 in 10.0 mi Calm Calm - N/A   Clear
11:16 AM -9.4 °F - -18.4 °F 65% 29.52 in 10.0 mi Calm Calm - N/A   Clear
11:36 AM -9.4 °F - -11.2 °F 92% 29.53 in 10.0 mi Calm Calm - N/A   Clear
11:56 AM -7.6 °F - -11.2 °F 84% 29.54 in 10.0 mi Calm Calm - N/A   Clear
12:16 PM -7.6 °F - -11.2 °F 84% 29.53 in 10.0 mi Calm Calm - N/A   Clear
12:36 PM -5.8 °F - -11.2 °F 77% 29.54 in 10.0 mi Calm Calm - N/A   Clear
12:56 PM -5.8 °F - -11.2 °F 77% 29.54 in 10.0 mi Calm Calm - N/A   Clear
1:16 PM -5.8 °F - -13.0 °F 71% 29.55 in 10.0 mi Calm Calm - N/A   Clear
1:36 PM -5.8 °F - -9.4 °F 84% 29.55 in 10.0 mi Calm Calm - N/A   Clear
1:56 PM -4.0 °F - -11.2 °F 71% 29.56 in 10.0 mi Calm Calm - N/A   Clear
2:16 PM -2.2 °F - -11.2 °F 66% 29.56 in 10.0 mi Calm Calm - N/A   Clear
2:36 PM -2.2 °F - -11.2 °F 66% 29.56 in 10.0 mi Calm Calm - N/A   Mostly Cloudy
2:56 PM -2.2 °F - -9.4 °F 71% 29.56 in 10.0 mi Calm Calm - N/A   Overcast
3:16 PM -2.2 °F - -9.4 °F 71% 29.56 in 10.0 mi Calm Calm - N/A   Overcast
3:36 PM -0.4 °F - -9.4 °F 66% 29.57 in 10.0 mi Calm Calm - N/A   Overcast
3:56 PM -0.4 °F - -9.4 °F 66% 29.57 in 10.0 mi Calm Calm - N/A   Overcast
4:16 PM -0.4 °F - -7.6 °F 72% 29.58 in 10.0 mi Calm Calm - N/A   Overcast
4:36 PM -0.4 °F - -9.4 °F 66% 29.58 in 10.0 mi Calm Calm - N/A   Overcast
4:56 PM 1.4 °F - -7.6 °F 66% 29.59 in 10.0 mi Calm Calm - N/A   Overcast
5:16 PM 1.4 °F - -7.6 °F 66% 29.59 in 10.0 mi Calm Calm - N/A   Overcast
5:36 PM 1.4 °F - -7.6 °F 66% 29.59 in 10.0 mi Calm Calm - N/A   Overcast
5:56 PM 1.4 °F - -7.6 °F 66% 29.60 in 10.0 mi Calm Calm - N/A   Overcast
6:16 PM 1.4 °F - -7.6 °F 66% 29.60 in 10.0 mi Calm Calm - N/A   Overcast
6:36 PM 1.4 °F - -7.6 °F 66% 29.60 in 10.0 mi Calm Calm - N/A   Overcast
6:56 PM 1.4 °F - -7.6 °F 66% 29.61 in 10.0 mi Calm Calm - N/A   Overcast
7:16 PM 1.4 °F -6.2 °F -7.6 °F 66% 29.62 in 10.0 mi East 3.5 mph - N/A   Overcast
7:36 PM 1.4 °F - -7.6 °F 66% 29.63 in 10.0 mi Calm Calm - N/A   Overcast
7:56 PM 1.4 °F - -5.8 °F 72% 29.63 in 9.0 mi Calm Calm - N/A   Overcast
8:16 PM 1.4 °F - -5.8 °F 72% 29.64 in 2.5 mi Calm Calm - N/A   Overcast
8:36 PM 1.4 °F - -4.0 °F 78% 29.64 in 2.5 mi Calm Calm - N/A   Overcast
8:56 PM -0.4 °F - -2.2 °F 92% 29.65 in 2.5 mi Calm Calm - N/A   Overcast
9:16 PM -0.4 °F - -2.2 °F 92% 29.65 in 4.0 mi Calm Calm - N/A   Overcast
9:36 PM -0.4 °F - -4.0 °F 85% 29.65 in 3.0 mi Calm Calm - N/A   Overcast
9:56 PM -0.4 °F - -4.0 °F 85% 29.65 in 3.0 mi Calm Calm - N/A   Overcast
10:16 PM -0.4 °F - -2.2 °F 92% 29.66 in 5.0 mi Calm Calm - N/A   Overcast
10:36 PM -0.4 °F - -4.0 °F 85% 29.66 in 10.0 mi Calm Calm - N/A   Overcast
10:56 PM -0.4 °F - -2.2 °F 92% 29.67 in 10.0 mi Calm Calm - N/A   Overcast
11:16 PM -0.4 °F - -5.8 °F 78% 29.67 in 10.0 mi Calm Calm - N/A   Overcast
11:36 PM -0.4 °F - -4.0 °F 85% 29.68 in 8.0 mi Calm Calm - N/A   Overcast
11:56 PM -0.4 °F - -5.8 °F 78% 29.68 in 10.0 mi Calm Calm - N/A   Mostly Cloudy